Powrót do katalogu

FENGYUN 1C DEB

AktywnyLEO
NORAD 30359·DEBRIS·🇨🇳 China

Wystrzelony May 10, 1999 z Taiyuan Satellite Launch Center

Loading…

Następne Przeloty (najbliższe 24 godziny)

TLE

ŚwieżeSource: Space-Track

Epoka: Sep 14, 2026, 04:11 UTC

1 30359U 99025ABW 26257.17486232  .00002464  00000-0  17011-2 0  9998
2 30359 101.6160 158.6880 0145722  16.8048 343.7860 13.95566432989091

Śledź FENGYUN 1C DEB w czasie rzeczywistym z AllMySat

Download on the App Store